Home > Weather > Dundalk > Past weeks

Flag for Ireland Past Weather in Dundalk, Ireland — Yesterday and Last 2 Weeks

Now
49 °F

Cool.


Feels Like: 48 °F
Forecast: 49 / 60 °F
Wind: 5 mph from Northwest

Location: Glenanne

Current Time: Jun 30, 2016 at 12:43:18 AM

Latest Report: Jun 30, 2016 at 12:00 AM


Visibility: 22 mi

Pressure: 29.65 "Hg

Humidity: 87%

Dew Point: 46 °F

Location of DundalkLocation

Past Weather in Dundalk — Graph

°F

Dundalk Temperature Yesterday

Maximum temperature yesterday: 58 °F (at 6:00 PM)
Minimum temperature yesterday: 48 °F (at 1:00 AM)
Average temperature yesterday: 52 °F

High & Low Weather Summary for the Past Weeks

 TemperatureHumidityPressure
High65 °F (Jun 15, 5:00 PM)100% (Jun 19, 4:00 AM)30.16 "Hg (Jun 19, 4:00 AM)
Low44 °F (Jun 23, 4:00 AM)60% (Jun 22, 2:00 PM)29.38 "Hg (Jun 15, 2:00 AM)
Average55 °F86%29.87 "Hg
* Reported Jun 14 11:00 PM — Jun 29 11:00 PM, Dundalk, Weather by CustomWeather, © 2016

Note: Actual official high and low records may vary slightly from our data, if they occured in-between our weather recording intervals... More about our weather records

Advertising

Dundalk Weather History for the Previous 24 Hours

Scroll right to see more
 ConditionsComfort  
Time TempWeatherWind HumidityBarometerVisibility
11:00 PM
Wed, Jun 29
49 °FCool.6 mph86%29.65 "Hg25 mi
10:00 PM51 °FCool.5 mph83%29.64 "Hg22 mi
9:00 PM54 °FCool.8 mph75%29.62 "Hg31 mi
8:00 PM55 °FCool.7 mph77%29.59 "Hg28 mi
7:00 PM56 °FCool.12 mph74%29.58 "Hg16 mi
6:00 PM58 °FCool.14 mph73%29.56 "Hg19 mi
4:00 PM55 °FCool.3 mph89%29.55 "Hg25 mi
3:00 PM56 °FCool.2 mph89%29.54 "Hg19 mi
2:00 PM56 °FLots of rain. Cloudy.3 mph88%29.50 "Hg3 mi
1:00 PM56 °FCool.2 mph84%29.50 "Hg14 mi
12:00 PM54 °FCool.3 mph93%29.50 "Hg7 mi
11:00 AM53 °FDrizzle. Cloudy.6 mph98%29.47 "Hg12 mi
10:00 AM51 °FRain. Cloudy.7 mph99%29.47 "Hg5 mi
9:00 AM50 °FRain. Cloudy.2 mph100%29.50 "Hg3 mi
8:00 AM50 °FRain. Cloudy.5 mph99%29.54 "Hg5 mi
7:00 AM50 °FLight rain. Cloudy.7 mph99%29.57 "Hg10 mi
6:00 AM50 °FLight rain. Cloudy.8 mph99%29.59 "Hg10 mi
5:00 AM50 °FRain showers. Cloudy.8 mph97%29.61 "Hg8 mi
4:00 AM49 °FCool.9 mph95%29.64 "Hg13 mi
2:00 AM49 °FCool.8 mph88%29.68 "Hg19 mi
1:00 AM48 °FCool.5 mph90%29.70 "Hg19 mi
12:00 AM50 °FCool.3 mph89%29.72 "Hg13 mi
Weather by CustomWeather, © 2016

See weather overviewHow to use our weather pages